Hong Kong Intl current weather conditions

sailwx.info

Wind from 040 at 15 knots

Air temperature 11.0° C
Dewpoint -11.0° C

Last reported at 2016-Feb-06 21:30 UTC.
Time now 2016-Feb-06 23:21 UTC

Location: N 22°19' E 113°55'.
View on Google Maps.

See reports from other nearby stations

  
Tides and Currents Weather Stations Pressure Air Temp Water Temp Dewpoint Dewpoint Depression Visibility Wind Speed Wind Dir Waves Ship Positions
date/time (UTC)wind fromknots sea level pressurealtimeterstation pressurevisibilityair tempwater tempwave heightnotes
2016-Feb-06 22:30 050 16 11.0
2016-Feb-06 22:00 030 15 11.0
2016-Feb-06 21:30 040 15 11.0
2016-Feb-06 21:00 030 10 11.0
2016-Feb-06 20:30 060 9 11.0
2016-Feb-06 20:00 070 8 11.0
2016-Feb-06 19:30 050 9 11.0
2016-Feb-06 19:00 050 10 11.0
2016-Feb-06 18:30 040 10 12.0
2016-Feb-06 18:00 060 10 12.0
2016-Feb-06 17:30 060 8 12.0
2016-Feb-06 17:00 030 9 12.0
2016-Feb-06 16:30 060 7 13.0
2016-Feb-06 16:00 070 9 13.0
2016-Feb-06 15:30 050 12 13.0
2016-Feb-06 15:00 050 12 13.0
2016-Feb-06 14:30 060 13 14.0
2016-Feb-06 14:00 050 13 14.0
2016-Feb-06 13:30 050 12 15.0
2016-Feb-06 13:00 040 11 15.0
2016-Feb-06 12:30 020 13 16.0
2016-Feb-06 12:00 030 18 16.0
2016-Feb-06 11:30 030 13 16.0
2016-Feb-06 11:00 030 15 17.0
2016-Feb-06 10:30 020 15 17.0
2016-Feb-06 10:00 020 17 17.0
2016-Feb-06 09:30 020 17 18.0
2016-Feb-06 09:00 010 17 18.0
2016-Feb-06 08:30 020 14 18.0
2016-Feb-06 08:00 010 15 18.0
2016-Feb-06 07:30 360 15 18.0
2016-Feb-06 07:00 010 13 17.0
2016-Feb-06 06:30 030 13 18.0
2016-Feb-06 06:00 010 15 17.0
2016-Feb-06 05:30 020 19 16.0
2016-Feb-06 05:00 360 20 16.0
2016-Feb-06 04:30 010 16 16.0
2016-Feb-06 04:00 050 26 16.0
2016-Feb-06 03:30 050 20 15.0
2016-Feb-06 03:00 040 20 15.0
2016-Feb-06 02:30 050 23 15.0
2016-Feb-06 02:00 030 18 14.0
2016-Feb-06 01:30 050 11 13.0
2016-Feb-06 01:00 040 11 13.0
2016-Feb-06 00:30 050 13 12.0
2016-Feb-06 00:00 050 11 12.0
2016-Feb-05 23:30 050 11 12.0
2016-Feb-05 23:00 030 12 11.0
2016-Feb-05 22:30 030 14 11.0
2016-Feb-05 22:00 030 14 12.0
2016-Feb-05 21:30 030 11 12.0
2016-Feb-05 21:00 010 12 12.0
2016-Feb-05 20:30 030 15 12.0
2016-Feb-05 20:00 040 14 12.0
2016-Feb-05 19:30 050 12 12.0
2016-Feb-05 19:00 030 13 12.0
2016-Feb-05 18:30 030 12 12.0
2016-Feb-05 18:00 030 12 13.0
2016-Feb-05 17:30 030 13 13.0
2016-Feb-05 17:00 040 12 13.0
2016-Feb-05 16:30 040 15 13.0
2016-Feb-05 16:00 030 13 13.0
2016-Feb-05 15:30 030 13 14.0
2016-Feb-05 15:00 030 14 14.0
2016-Feb-05 14:30 050 15 14.0
2016-Feb-05 14:00 050 12 15.0
2016-Feb-05 13:30 050 11 15.0
2016-Feb-05 13:00 020 9 16.0
2016-Feb-05 12:30 010 12 16.0
2016-Feb-05 12:00 340 14 16.0
2016-Feb-05 11:30 340 16 16.0
2016-Feb-05 11:00 340 16 16.0
2016-Feb-05 10:30 340 14 16.0
2016-Feb-05 10:00 330 16 16.0
2016-Feb-05 09:30 330 16 16.0
2016-Feb-05 09:00 330 17 16.0
2016-Feb-05 08:30 330 17 16.0
2016-Feb-05 08:00 320 15 16.0
2016-Feb-05 07:30 320 18 16.0
2016-Feb-05 07:00 320 19 16.0
2016-Feb-05 06:30 320 17 16.0
2016-Feb-05 06:00 320 18 5.415.0
2016-Feb-05 05:30 320 17 15.0
2016-Feb-05 05:00 310 11 16.0
2016-Feb-05 04:30 310 10 16.0
2016-Feb-05 04:00 320 8 15.0
2016-Feb-05 03:30 330 8 5.414.0
2016-Feb-05 03:00 340 9 5.414.0
2016-Feb-05 02:30 340 8 5.414.0
2016-Feb-05 02:00 350 10 5.413.0
2016-Feb-05 01:30 350 11 5.413.0
2016-Feb-05 01:00 350 11 5.412.0
2016-Feb-05 00:30 350 10 5.412.0
2016-Feb-05 00:00 350 9 5.412.0
2016-Feb-04 23:30 350 10 4.912.0
2016-Feb-04 23:00 360 9 4.912.0